This demonstration page uses our WeatherBlox Daily Observations layout. Learn more.

39.51506, -84.39828

Hourly Observations for November 3, 2019

Temp ( °F °C ) Dew Point ( °F °C ) Humidity (%) Winds ( mph kmh ) Pressure ( in mb ) Visibility ( mi km ) Precip ( " mm )
12:15 am 00:15 Cloudy 35 1.4 30 -0.9 85 85 Calm 30.26 1025 10 16.0934 0 0
12:35 am 00:35 Cloudy 36 2.3 31 -0.6 81 81 SW 5 7 30.25 1024 10 16.0934 0 0
12:55 am 00:55 Mostly Cloudy 37 2.6 30 -1.3 76 76 WSW 3 6 30.25 1024 10 16.0934 0 0
1:15 am 01:15 Clear 35 1.6 31 -0.3 87 87 Calm 30.25 1024 10 16.0934 0 0
1:35 am 01:35 Clear 34 1.2 31 -0.3 90 90 Calm 30.26 1025 10 16.0934 0 0
1:55 am 01:55 Mostly Cloudy 32 -0.1 30 -1.2 92 92 Calm 30.27 1025 10 16.0934 0 0
1:15 am 01:15 Cloudy 32 0.2 30 -1.3 90 90 WSW 5 7 30.26 1025 10 16.0934 0 0
1:35 am 01:35 Cloudy 33 0.6 31 -0.7 91 91 Calm 30.26 1025 10 16.0934 0 0
1:55 am 01:55 Cloudy 35 1.4 30 -1 84 84 Calm 30.26 1025 10 16.0934 0 0
2:15 am 02:15 Cloudy 34 1.2 31 -0.8 87 87 Calm 30.26 1025 10 16.0934 0 0
2:35 am 02:35 Partly Cloudy 35 1.5 31 -0.8 85 85 Calm 30.26 1025 10 16.0934 0 0
2:55 am 02:55 Partly Cloudy 33 0.6 30 -0.9 90 90 Calm 30.26 1025 10 16.0934 0 0
3:15 am 03:15 Clear 30 -1.1 29 -1.8 95 95 Calm 30.27 1025 10 16.0934 0 0
3:35 am 03:35 Clear 32 -0.2 31 -0.8 96 96 Calm 30.27 1025 10 16.0934 0 0
3:55 am 03:55 Clear 31 -0.5 30 -1.1 96 96 Calm 30.27 1025 10 16.0934 0 0
4:15 am 04:15 Clear 30 -0.9 29 -1.5 96 96 Calm 30.28 1025 10 16.0934 0 0
4:35 am 04:35 Clear 30 -1.3 29 -1.7 97 97 Calm 30.28 1025 10 16.0934 0 0
4:55 am 04:55 Clear 30 -1.2 29 -1.5 98 98 Calm 30.28 1025 10 16.0934 0 0
5:15 am 05:15 Clear with Mist and Fog 29 -1.7 28 -2 98 98 Calm 30.29 1026 7 11.26538 0 0
5:35 am 05:35 Clear 29 -1.6 29 -1.8 99 99 Calm 30.29 1026 10 16.0934 0 0
5:55 am 05:55 Clear with Mist and Fog 28 -2.2 28 -2.4 99 99 Calm 30.29 1026 2.5 4.02335 0 0
6:15 am 06:15 Clear 29 -1.5 29 -1.7 99 99 Calm 30.29 1026 7 11.26538 0 0
6:35 am 06:35 Clear 28 -2.1 28 -2.3 99 99 Calm 30.29 1026 7 11.26538 0 0
6:55 am 06:55 Clear with Mist and Fog 28 -2.1 28 -2.2 99 99 Calm 30.3 1026 5 8.0467 0 0
7:15 am 07:15 Sunny with Mist and Fog 29 -1.9 28 -2 99 99 Calm 30.3 1026 5 8.0467 0 0
7:35 am 07:35 Sunny with Mist and Fog 29 -1.8 28 -2 99 99 Calm 30.3 1026 7 11.26538 0 0
7:55 am 07:55 Sunny 29 -1.8 28 -2 99 99 Calm 30.31 1026 7 11.26538 0 0
8:15 am 08:15 Sunny 32 -0.2 31 -0.4 99 99 Calm 30.31 1026 10 16.0934 0 0
8:35 am 08:35 Sunny 35 1.7 33 0.5 92 92 SW 3 6 30.31 1026 10 16.0934 0 0
8:55 am 08:55 Sunny 37 2.7 31 -0.5 80 80 WSW 6 9 30.31 1026 10 16.0934 0 0
9:15 am 09:15 Sunny 38 3.6 32 -0.1 77 77 SW 5 7 30.32 1027 10 16.0934 0 0
9:35 am 09:35 Sunny 40 4.3 31 -0.5 71 71 SW 6 9 30.31 1027 10 16.0934 0 0
9:55 am 09:55 Sunny 42 5.3 31 -0.4 67 67 SW 7 11 30.31 1026 10 16.0934 0 0
10:15 am 10:15 Sunny 43 6.1 32 0.2 66 66 SSW 7 11 30.31 1026 10 16.0934 0 0
10:35 am 10:35 Sunny 45 7.4 32 0.1 60 60 WSW 7 11 30.3 1026 10 16.0934 0 0
10:55 am 10:55 Sunny 47 8.3 31 -0.3 55 55 SSW 10 17 30.29 1026 10 16.0934 0 0
11:15 am 11:15 Sunny 48 9 31 -0.4 52 52 SW 10 17 30.29 1026 10 16.0934 0 0
11:35 am 11:35 Sunny 49 9.7 30 -0.9 48 48 SW 8 13 30.28 1025 10 16.0934 0 0
11:55 am 11:55 Partly Cloudy 51 10.5 31 -0.8 46 46 SW 9 15 30.28 1025 10 16.0934 0 0
12:15 pm 12:15 Mostly Cloudy 51 10.6 29 -1.7 43 43 WSW 10 17 30.27 1025 10 16.0934 0 0
12:35 pm 12:35 Mostly Cloudy 51 10.5 29 -1.8 43 43 SSW 8 13 30.26 1025 10 16.0934 0 0
12:55 pm 12:55 Sunny 52 11.2 28 -2.1 40 40 W 9 15 30.25 1024 10 16.0934 0 0
1:15 pm 13:15 Sunny 53 11.4 29 -1.4 41 41 S 8 13 30.23 1024 10 16.0934 0 0
1:35 pm 13:35 Sunny 52 11.1 29 -1.9 41 41 SSW 12 19 30.22 1023 10 16.0934 0 0
1:55 pm 13:55 Sunny 53 11.5 29 -1.5 41 41 SW 8 13 30.22 1023 10 16.0934 0 0
2:15 pm 14:15 Partly Cloudy 51 10.3 28 -2.4 41 41 SSW 10 17 30.21 1023 10 16.0934 0 0
2:35 pm 14:35 Mostly Cloudy 53 11.5 29 -1.7 40 40 SSW 10 17 30.21 1023 10 16.0934 0 0
2:55 pm 14:55 Partly Cloudy 53 11.7 29 -1.5 40 40 SSW 6 9 30.19 1023 10 16.0934 0 0
3:15 pm 15:15 Sunny 53 11.7 28 -2.2 38 38 WSW 13 20 30.19 1023 10 16.0934 0 0
3:35 pm 15:35 Partly Cloudy 53 11.7 28 -2.4 38 38 SW 15 24 30.19 1023 10 16.0934 0 0
3:55 pm 15:55 Sunny 53 11.5 28 -2.1 39 39 SSW 7 11 30.19 1022 10 16.0934 0 0
4:15 pm 16:15 Sunny 52 11.3 28 -2.5 38 38 WSW 10 17 30.19 1022 10 16.0934 0 0
4:35 pm 16:35 Sunny 52 11 28 -2.2 40 40 SSW 8 13 30.19 1022 10 16.0934 0 0
4:55 pm 16:55 Sunny 51 10.5 28 -2.3 41 41 SSW 10 17 30.18 1022 10 16.0934 0 0
5:15 pm 17:15 Sunny 50 9.9 28 -2.1 43 43 SSW 8 13 30.18 1022 10 16.0934 0 0
5:35 pm 17:35 Clear 49 9.7 28 -2.3 43 43 SSW 9 15 30.18 1022 10 16.0934 0 0
5:55 pm 17:55 Clear 47 8.4 29 -1.9 49 49 SSW 7 11 30.18 1022 10 16.0934 0 0
6:15 pm 18:15 Clear 48 8.7 28 -2.1 47 47 SSW 9 15 30.18 1022 10 16.0934 0 0
6:35 pm 18:35 Clear 47 8.6 28 -2.3 47 47 SSW 7 11 30.18 1022 10 16.0934 0 0
6:55 pm 18:55 Clear 46 7.5 28 -2.1 51 51 SSW 6 9 30.19 1022 10 16.0934 0 0
7:15 pm 19:15 Clear 43 6 30 -1 61 61 SW 3 6 30.19 1022 10 16.0934 0 0
7:35 pm 19:35 Clear 40 4.3 31 -0.5 71 71 SW 3 6 30.19 1022 10 16.0934 0 0
7:55 pm 19:55 Clear 44 6.6 31 -0.8 60 60 SSW 9 15 30.18 1022 10 16.0934 0 0
8:15 pm 20:15 Clear 47 8.6 28 -2 48 48 S 10 17 30.17 1022 10 16.0934 0 0
8:35 pm 20:35 Clear 47 8.2 29 -1.7 50 50 S 9 15 30.17 1022 10 16.0934 0 0
8:55 pm 20:55 Clear 45 7.1 29 -1.4 55 55 SSW 7 11 30.19 1022 10 16.0934 0 0
9:15 pm 21:15 Clear 44 6.6 31 -0.6 60 60 WSW 6 9 30.19 1022 10 16.0934 0 0
9:35 pm 21:35 Partly Cloudy 44 6.4 31 -0.5 62 62 SW 6 9 30.2 1023 10 16.0934 0 0
9:55 pm 21:55 Partly Cloudy 44 6.5 31 -0.3 62 62 SSW 5 7 30.2 1023 10 16.0934 0 0
10:15 pm 22:15 Mostly Cloudy 43 5.9 33 0.6 69 69 Calm 30.2 1023 10 16.0934 0 0
10:35 pm 22:35 Clear 43 6 32 0.2 67 67 Calm 30.19 1022 10 16.0934 0 0
10:55 pm 22:55 Clear 44 6.5 31 -0.6 61 61 SSW 8 13 30.18 1022 10 16.0934 0 0
11:15 pm 23:15 Clear 40 4.7 31 -0.7 68 68 SSW 7 11 30.18 1022 10 16.0934 0 0
11:35 pm 23:35 Clear 43 6.1 31 -0.7 62 62 SSW 6 9 30.17 1022 10 16.0934 0 0
11:55 pm 23:55 Clear 44 6.7 31 -0.5 60 60 SW 7 11 30.18 1022 10 16.0934 0 0

Powered by AerisWeather